{"data":{"norad_id":56310,"epoch":"2026-09-22T00:00:31.163616Z","epoch_age_seconds":57299,"freshness":"FRESH","line1":"1 56310U 23057C   26265.00036069  .00003893  00000+0  27514-3 0  9991","line2":"2 56310   9.9876 219.2652 0000744 266.3125  93.7003 14.96406780187321","mean_motion":14.9640678,"eccentricity":7.44e-5,"inclination_deg":9.9876,"raan_deg":219.2652,"arg_perigee_deg":266.3125,"mean_anomaly_deg":93.7003,"bstar":0.00027514,"rev_number":18732,"period_min":96.230518281934,"perigee_km":577.49212171716,"apogee_km":578.52719634003,"semimajor_km":6956.1466590286,"source":"CELESTRAK","updated_at":"2026-09-22T09:00:25.743908Z"}}